Regional Weather Roundup
Issued by NWS

Home | Current Version | Previous Version | Text Only | Print | Product List | Glossary Off
Versions: 1 2 3 4 5 6 7 8 9 10 11 12 13 14 15 16 17 18 19 20 21 22 23 24 25 26 27 28 29 30 31 32 33 34 35 36 37 38 39 40 41 42 43 44 45 46 47 48 49 50

000
ASUS43 KOAX 020902
RWRNE

WEATHER ROUNDUP FOR NEBRASKA
NATIONAL WEATHER SERVICE OMAHA NE
400 AM CDT THU JUL 02 2015

NOTES: SATELLITE DATA IS BEING USED TO AUGMENT CLOUD COVER ABOVE
       12000 FEET.
       "FAIR" INDICATES FEW OR NO CLOUDS BELOW 12,000 FEET WITH NO
       SIGNIFICANT WEATHER AND/OR OBSTRUCTIONS TO VISIBILITY.

  * THESE STATIONS DO NOT REPORT WEATHER SUCH AS RAIN...SNOW OR FOG.

NEZ001>004-019>022-054>056-021000-
NEBRASKA PANHANDLE

CITY           SKY/WX    TMP DP  RH WIND       PRES   REMARKS
SCOTTSBLUFF    CLOUDY    61  32  33 NE21      30.16F
ALLIANCE       RAIN      59  58  96 S6        30.16S FOG
CHADRON        CLOUDY    61  58  90 N5        30.05F
SIDNEY         MOCLDY    61  54  77 NE26G47   30.18R
$$

NEZ057>060-069>072-079>082-021000-
SOUTHWEST NEBRASKA

CITY           SKY/WX    TMP DP  RH WIND       PRES   REMARKS
NORTH PLATTE   CLOUDY    69  63  81 N9        30.01R
IMPERIAL       MOCLDY    67  60  78 N14       30.00R
MCCOOK         CLOUDY    74  63  68 E10       29.94S
$$

NEZ005>010-023>029-035>040-094-021000-
NORTH CENTRAL NEBRASKA

CITY           SKY/WX    TMP DP  RH WIND       PRES   REMARKS
VALENTINE      LGT RAIN  67  65  93 S14       29.91F
BROKEN BOW     CLOUDY    70  68  93 NW3       30.00R FOG
$$

NEZ041-046>049-061>064-073>077-083>087-021000-
SOUTH CENTRAL NEBRASKA

CITY           SKY/WX    TMP DP  RH WIND       PRES   REMARKS
GRAND ISLAND   CLOUDY    69  67  93 E8        29.94R FOG
HASTINGS       CLOUDY    70  68  93 E8        29.93R FOG
KEARNEY *      CLOUDY    70  66  88 CALM      29.95R
$$

NEZ011>018-030>034-042>045-021000-
NORTHEAST NEBRASKA

CITY           SKY/WX    TMP DP  RH WIND       PRES   REMARKS
NORFOLK        CLOUDY    65  61  87 E5        29.96R
COLUMBUS *     CLOUDY   N/A N/A N/A E7        29.94R
TEKAMAH        PTCLDY    63  59  87 NE6       29.96R
$$

NEZ050>053-065>068-078-088>093-021000-
SOUTHEAST NEBRASKA

CITY           SKY/WX    TMP DP  RH WIND       PRES   REMARKS
LINCOLN        CLOUDY    69  65  86 E12       29.92S
OMAHA EPPLEY   CLOUDY    66  59  78 E3        29.94R
FALLS CITY     CLOUDY    70  67  90 E9        29.88S
$$

NEZ044-045-051>053-067-021000-
OMAHA AREA

CITY           SKY/WX    TMP DP  RH WIND       PRES   REMARKS
OMAHA EPPLEY   CLOUDY    66  59  78 E3        29.94R
OFFUTT AFB     PTCLDY    66  59  79 E7        29.92R
$$



USA.gov is the U.S. government's official web portal to all federal, state and local government web resources and services.